Location: Ferchesar
(52.6477°N, 12.4298°E)
Time: 20:45:44
(UTC+02:00)

A-11 Canister half - Pass Details

Date: 12 March 2021
Orbit: 1525 x 1683 km, 47.3° (Epoch: 11 April)

Event Time Altitude Azimuth Distance (km) Brightness Sun altitude
Exits shadow 02:51:00 47° 170° (S) 2,014 9.3 -31.6°
Maximum altitude 02:51:52 49° 155° (SSE) 1,985 9.3 -31.5°
Drops below altitude 10° 03:00:50 10° 85° (E) 3,750 11.6 -30.5°
Sets 03:03:58 0° 80° (E) 4,718 12.4 -30.2°
